TimeEEST,TemperatureF,Dew PointF,Humidity,Sea Level PressureIn,VisibilityMPH,Wind Direction,Wind SpeedMPH,Gust SpeedMPH,PrecipitationIn,Events,Conditions,WindDirDegrees,DateUTC
12:20 AM,71.6,42.8,35,29.68,-9999.0,SSW,4.6,-,N/A,,Clear,200,2013-06-12 21:20:00
12:50 AM,68.0,48.2,49,29.68,-9999.0,WSW,4.6,-,N/A,,Clear,240,2013-06-12 21:50:00
1:20 AM,66.2,46.4,49,29.68,-9999.0,WSW,3.5,-,N/A,,Clear,250,2013-06-12 22:20:00
1:50 AM,66.2,46.4,49,29.68,-9999.0,South,4.6,-,N/A,,Clear,190,2013-06-12 22:50:00
2:20 AM,64.4,48.2,56,29.68,-9999.0,Variable,2.3,-,N/A,,Clear,0,2013-06-12 23:20:00
2:50 AM,59.0,51.8,77,29.68,-9999.0,NNE,6.9,-,N/A,,Clear,20,2013-06-12 23:50:00
3:20 AM,59.0,51.8,77,29.68,-9999.0,NNE,6.9,-,N/A,,Clear,30,2013-06-13 00:20:00
3:50 AM,59.0,51.8,77,29.68,-9999.0,NE,9.2,-,N/A,,Clear,40,2013-06-13 00:50:00
4:20 AM,57.2,50.0,77,29.68,-9999.0,NNE,8.1,-,N/A,,Clear,30,2013-06-13 01:20:00
4:50 AM,55.4,50.0,82,29.71,-9999.0,NNE,6.9,-,N/A,,Clear,20,2013-06-13 01:50:00
5:20 AM,57.2,51.8,82,29.71,-9999.0,NE,8.1,-,N/A,,Clear,50,2013-06-13 02:20:00
5:50 AM,60.8,50.0,68,29.71,-9999.0,NE,6.9,-,N/A,,Clear,40,2013-06-13 02:50:00
6:20 AM,66.2,50.0,56,29.71,-9999.0,NNE,4.6,-,N/A,,Clear,30,2013-06-13 03:20:00
6:50 AM,69.8,50.0,49,29.71,-9999.0,NNE,6.9,-,N/A,,Clear,20,2013-06-13 03:50:00
7:20 AM,71.6,50.0,46,29.71,-9999.0,NNE,6.9,-,N/A,,Clear,20,2013-06-13 04:20:00
7:50 AM,75.2,51.8,44,29.71,-9999.0,North,3.5,-,N/A,,Clear,350,2013-06-13 04:50:00
8:20 AM,78.8,51.8,39,29.71,-9999.0,Variable,3.5,-,N/A,,Clear,0,2013-06-13 05:20:00
8:50 AM,82.4,48.2,30,29.71,-9999.0,West,3.5,-,N/A,,Clear,280,2013-06-13 05:50:00
9:20 AM,86.0,44.6,23,29.71,-9999.0,SSW,4.6,-,N/A,,Clear,210,2013-06-13 06:20:00
9:50 AM,86.0,46.4,25,29.71,-9999.0,Variable,4.6,-,N/A,,Clear,0,2013-06-13 06:50:00
10:20 AM,87.8,41.0,19,29.71,-9999.0,Variable,4.6,-,N/A,,Clear,0,2013-06-13 07:20:00
10:50 AM,89.6,42.8,20,29.71,-9999.0,Variable,3.5,-,N/A,,Clear,0,2013-06-13 07:50:00
11:20 AM,91.4,39.2,16,29.71,-9999.0,SSW,4.6,-,N/A,,Clear,210,2013-06-13 08:20:00
11:50 AM,93.2,33.8,12,29.71,-9999.0,SSW,8.1,-,N/A,,Clear,210,2013-06-13 08:50:00
12:20 PM,95.0,32.0,11,29.71,-9999.0,South,8.1,-,N/A,,Clear,190,2013-06-13 09:20:00
12:50 PM,95.0,32.0,11,29.68,-9999.0,SSW,9.2,-,N/A,,Clear,210,2013-06-13 09:50:00
1:20 PM,95.0,30.2,10,29.68,-9999.0,SSW,8.1,-,N/A,,Clear,200,2013-06-13 10:20:00
1:50 PM,95.0,32.0,11,29.68,-9999.0,South,10.4,-,N/A,,Clear,190,2013-06-13 10:50:00
2:20 PM,95.0,30.2,10,29.68,-9999.0,South,6.9,-,N/A,,Clear,190,2013-06-13 11:20:00
2:50 PM,96.8,32.0,10,29.68,-9999.0,South,6.9,-,N/A,,Clear,180,2013-06-13 11:50:00
3:20 PM,96.8,35.6,12,29.65,-9999.0,South,6.9,-,N/A,,Clear,180,2013-06-13 12:20:00
3:50 PM,96.8,32.0,10,29.65,-9999.0,South,8.1,-,N/A,,Clear,180,2013-06-13 12:50:00
4:20 PM,96.8,28.4,9,29.65,-9999.0,SSW,6.9,-,N/A,,Clear,200,2013-06-13 13:20:00
4:50 PM,96.8,33.8,11,29.65,-9999.0,South,5.8,-,N/A,,Clear,190,2013-06-13 13:50:00
5:20 PM,95.0,35.6,12,29.62,-9999.0,SSW,8.1,-,N/A,,Clear,210,2013-06-13 14:20:00
5:50 PM,95.0,37.4,13,29.62,-9999.0,SSW,5.8,-,N/A,,Clear,200,2013-06-13 14:50:00
6:20 PM,95.0,35.6,12,29.62,-9999.0,WSW,4.6,-,N/A,,Clear,240,2013-06-13 15:20:00
6:50 PM,89.6,46.4,22,29.62,-9999.0,SSW,3.5,-,N/A,,Clear,200,2013-06-13 15:50:00
7:20 PM,87.8,44.6,22,29.62,-9999.0,SSW,2.3,-,N/A,,Clear,200,2013-06-13 16:20:00
7:50 PM,84.2,41.0,22,29.65,-9999.0,West,4.6,-,N/A,,Clear,270,2013-06-13 16:50:00
8:20 PM,80.6,48.2,32,29.65,-9999.0,South,4.6,-,N/A,,Clear,180,2013-06-13 17:20:00
8:50 PM,77.0,51.8,41,29.68,-9999.0,SSW,5.8,-,N/A,,Clear,200,2013-06-13 17:50:00
9:20 PM,77.0,48.2,36,29.68,-9999.0,SSW,6.9,-,N/A,,Clear,200,2013-06-13 18:20:00
9:50 PM,77.0,44.6,32,29.68,-9999.0,SSE,5.8,-,N/A,,Clear,150,2013-06-13 18:50:00
10:20 PM,75.2,44.6,34,29.68,-9999.0,South,5.8,-,N/A,,Clear,180,2013-06-13 19:20:00
10:50 PM,71.6,46.4,41,29.68,-9999.0,SSW,4.6,-,N/A,,Clear,210,2013-06-13 19:50:00
11:20 PM,71.6,44.6,38,29.68,-9999.0,Variable,1.2,-,N/A,,Clear,0,2013-06-13 20:20:00
11:50 PM,71.6,44.6,38,29.68,-9999.0,SSW,4.6,-,N/A,,Clear,200,2013-06-13 20:50:00